Tracking 29892 objects as of 21-Nov-2024
HD Live streaming from Space Station
objects crossing your sky now

ARIANE 1 DEB

Track ARIANE 1 DEB now!
10-day predictions


NORAD ID: 17153
Int'l Code: 1986-019AG
Perigee: 684.5 km
Apogee: 703.5 km
Inclination: 98.0 °
Period: 98.5 minutes
Semi major axis: 7065 km
RCS: 0.2004 m2 (medium)
Launch date: February 22, 1986
Source: France (FR)
Launch site: FRENCH GUIANA (FRGUI)

Note: This is SATELLITE DEBRIS
Your satellite tracking list
Your tracking list is empty




NASA's NSSDC Master Catalog

Two Line Element Set (TLE):
1 17153U 86019AG  24325.89928642  .00006231  00000-0  12508-2 0  9995
2 17153  98.0038 334.0682 0013389 287.1907  72.7829 14.61955744951333
Source of the keplerian elements: AFSPC